Weather History for Grand Rapids, MN

Change the Weather History Date:

Thursday, September 6, 2012

  Actual Average Record
Temperature  
Mean Temperature 60 °F -  
Max Temperature 68 °F 72 °F 92 °F (1978)
Min Temperature 51 °F 48 °F 30 °F (1929)
Degree Days  
Heating Degree Days 6    
Growing Degree Days 10 (Base 50)    
Moisture  
Dew Point 50 °F    
Average Humidity 73    
Maximum Humidity 88    
Minimum Humidity 49    
Precipitation  
Precipitation 0.00 in - - ()
Sea Level Pressure  
Sea Level Pressure 29.92 in    
Wind  
Wind Speed 5 mph (West)    
Max Wind Speed 13 mph    
Max Gust Speed 17 mph    
Visibility 10 miles    
Events      
Averages and records for this station are not official NWS values.
T = Trace of Precipitation, MM = Missing Value Source: NWS Daily Summary

Daily Weather History Graph

Daily Weather History Graph

Search for Another Location

Airport:

Trip Planner

Search our weather history database for the weather conditions in past years. The results will help you decide how hot, cold, wet, or windy it might be!

Date:

Astronomy

Sep. 06, 2012 Rise Set
Actual Time 6:40 AM CDT 7:43 PM CDT
Civil Twilight 6:09 AM CDT 8:14 PM CDT
Nautical Twilight 5:31 AM CDT 8:51 PM CDT
Astronomical Twilight 4:51 AM CDT 9:31 PM CDT
Moon 10:26 PM CDT (9/6) 1:07 PM CDT (9/6)
Length of Visible Light 14h 05m
Length of Day
13h 02m
Waning Gibbous, 67% of the Moon is Illuminated
Sep 6
Waning Gibbous
Sep 8
Last Quarter
Sep 15
New
Sep 22
First Quarter
Sep 29
Full

Hourly Weather History & Observations

Time (CDT) Temp. Dew Point Humidity Pressure Visibility Wind Dir Wind Speed Gust Speed Precip Events Conditions
12:15 AM 60.8 °F 48.2 °F 63% 29.87 in 10.0 mi West 4.6 mph - N/A   Clear
12:35 AM 60.8 °F 50.0 °F 68% 29.87 in 10.0 mi West 5.8 mph - N/A   Clear
12:55 AM 60.8 °F 50.0 °F 68% 29.87 in 10.0 mi West 5.8 mph - N/A   Clear
1:15 AM 59.0 °F 50.0 °F 72% 29.88 in 10.0 mi West 5.8 mph - N/A   Clear
1:35 AM 59.0 °F 48.2 °F 67% 29.88 in 10.0 mi West 3.5 mph - N/A   Clear
1:55 AM 59.0 °F 48.2 °F 67% 29.88 in 10.0 mi WSW 4.6 mph - N/A   Clear
2:15 AM 57.2 °F 48.2 °F 72% 29.88 in 10.0 mi WSW 5.8 mph - N/A   Clear
2:35 AM 57.2 °F 48.2 °F 72% 29.88 in 10.0 mi West 4.6 mph - N/A   Clear
2:55 AM 55.4 °F 48.2 °F 77% 29.88 in 10.0 mi West 3.5 mph - N/A   Clear
3:15 AM 53.6 °F 48.2 °F 82% 29.88 in 10.0 mi WSW 3.5 mph - N/A   Clear
3:35 AM 55.4 °F 48.2 °F 77% 29.88 in 10.0 mi Calm Calm - N/A   Partly Cloudy
3:55 AM 53.6 °F 48.2 °F 82% 29.89 in 10.0 mi Calm Calm - N/A   Mostly Cloudy
4:15 AM 51.8 °F 48.2 °F 88% 29.89 in 10.0 mi Calm Calm - N/A   Partly Cloudy
4:35 AM 51.8 °F 48.2 °F 88% 29.89 in 10.0 mi West 5.8 mph - N/A   Mostly Cloudy
4:55 AM 57.2 °F 48.2 °F 72% 29.89 in 10.0 mi West 5.8 mph - N/A   Overcast
5:15 AM 57.2 °F 50.0 °F 77% 29.90 in 10.0 mi WSW 3.5 mph - N/A   Overcast
5:35 AM 57.2 °F 48.2 °F 72% 29.90 in 10.0 mi Calm Calm - N/A   Overcast
5:55 AM 53.6 °F 48.2 °F 82% 29.90 in 10.0 mi Calm Calm - N/A   Scattered Clouds
6:15 AM 51.8 °F 48.2 °F 88% 29.90 in 10.0 mi Calm Calm - N/A   Clear
6:35 AM 51.8 °F 48.2 °F 88% 29.90 in 10.0 mi Calm Calm - N/A   Clear
6:55 AM 51.8 °F 46.4 °F 82% 29.91 in 10.0 mi Calm Calm - N/A   Clear
7:15 AM 51.8 °F 46.4 °F 82% 29.92 in 10.0 mi Calm Calm - N/A   Clear
7:35 AM 51.8 °F 46.4 °F 82% 29.92 in 10.0 mi Calm Calm - N/A   Clear
7:55 AM 53.6 °F 50.0 °F 88% 29.92 in 10.0 mi Calm Calm - N/A   Clear
8:15 AM 55.4 °F 51.8 °F 88% 29.92 in 10.0 mi Calm Calm - N/A   Clear
8:35 AM 59.0 °F 51.8 °F 77% 29.93 in 10.0 mi West 3.5 mph - N/A   Clear
8:55 AM 59.0 °F 51.8 °F 77% 29.93 in 10.0 mi WSW 3.5 mph - N/A   Clear
10:35 AM 64.4 °F 50.0 °F 59% 29.94 in 10.0 mi West 5.8 mph - N/A   Mostly Cloudy
10:55 AM 64.4 °F 50.0 °F 59% 29.94 in 10.0 mi WSW 5.8 mph - N/A   Overcast
11:15 AM 66.2 °F 51.8 °F 60% 29.94 in 10.0 mi NW 4.6 mph - N/A   Mostly Cloudy
11:35 AM 66.2 °F 51.8 °F 60% 29.94 in 10.0 mi WNW 3.5 mph - N/A   Scattered Clouds
11:55 AM 66.2 °F 50.0 °F 56% 29.94 in 10.0 mi West 5.8 mph - N/A   Clear
12:15 PM 68.0 °F 48.2 °F 49% 29.93 in 10.0 mi NNW 8.1 mph - N/A   Partly Cloudy
12:35 PM 68.0 °F 50.0 °F 52% 29.93 in 10.0 mi WNW 6.9 mph - N/A   Partly Cloudy
12:55 PM 68.0 °F 50.0 °F 52% 29.93 in 10.0 mi WNW 11.5 mph 17.3 mph N/A   Clear
1:15 PM 68.0 °F 48.2 °F 49% 29.93 in 10.0 mi West 8.1 mph - N/A   Clear
1:35 PM 68.0 °F 48.2 °F 49% 29.93 in 10.0 mi West 9.2 mph - N/A   Partly Cloudy
1:55 PM 68.0 °F 50.0 °F 52% 29.93 in 10.0 mi West 10.4 mph - N/A   Scattered Clouds
2:15 PM 68.0 °F 48.2 °F 49% 29.93 in 10.0 mi West 11.5 mph 16.1 mph N/A   Partly Cloudy
2:35 PM 66.2 °F 48.2 °F 52% 29.93 in 10.0 mi NW 11.5 mph - N/A   Mostly Cloudy
2:55 PM 66.2 °F 48.2 °F 52% 29.94 in 10.0 mi WNW 8.1 mph 16.1 mph N/A   Mostly Cloudy
3:15 PM 64.4 °F 50.0 °F 59% 29.93 in 10.0 mi WNW 12.7 mph - N/A   Mostly Cloudy
3:35 PM 64.4 °F 50.0 °F 59% 29.93 in 10.0 mi WNW 6.9 mph - N/A   Mostly Cloudy
3:55 PM 62.6 °F 51.8 °F 68% 29.93 in 10.0 mi NW 5.8 mph - N/A   Overcast
4:15 PM 62.6 °F 51.8 °F 68% 29.92 in 10.0 mi NNW 9.2 mph - N/A   Mostly Cloudy
4:35 PM 62.6 °F 51.8 °F 68% 29.93 in 10.0 mi West 5.8 mph - N/A   Mostly Cloudy
4:55 PM 62.6 °F 51.8 °F 68% 29.92 in 10.0 mi NW 8.1 mph - N/A   Overcast
5:15 PM 62.6 °F 51.8 °F 68% 29.93 in 10.0 mi West 5.8 mph - N/A   Overcast
5:35 PM 62.6 °F 51.8 °F 68% 29.92 in 10.0 mi NW 4.6 mph - N/A   Overcast
5:55 PM 60.8 °F 51.8 °F 72% 29.92 in 10.0 mi West 5.8 mph - N/A   Overcast
6:15 PM 60.8 °F 51.8 °F 72% 29.93 in 10.0 mi WSW 3.5 mph - N/A   Overcast
6:35 PM 60.8 °F 53.6 °F 77% 29.93 in 10.0 mi WSW 3.5 mph - N/A   Overcast
6:55 PM 60.8 °F 53.6 °F 77% 29.93 in 10.0 mi Calm Calm - N/A   Overcast
7:15 PM 59.0 °F 53.6 °F 82% 29.94 in 10.0 mi West 5.8 mph - N/A   Overcast
7:35 PM 57.2 °F 53.6 °F 88% 29.93 in 10.0 mi WSW 5.8 mph - N/A   Overcast
7:55 PM 57.2 °F 51.8 °F 82% 29.92 in 10.0 mi WSW 4.6 mph - N/A   Overcast
8:15 PM 57.2 °F 53.6 °F 88% 29.92 in 10.0 mi West 4.6 mph - N/A   Overcast
8:35 PM 57.2 °F 53.6 °F 88% 29.93 in 10.0 mi West 4.6 mph - N/A   Mostly Cloudy
8:55 PM 57.2 °F 53.6 °F 88% 29.93 in 10.0 mi West 6.9 mph - N/A   Overcast
9:15 PM 57.2 °F 53.6 °F 88% 29.94 in 10.0 mi West 6.9 mph - N/A   Overcast
9:35 PM 57.2 °F 53.6 °F 88% 29.94 in 10.0 mi WNW 5.8 mph - N/A   Overcast
9:55 PM 57.2 °F 53.6 °F 88% 29.95 in 10.0 mi WNW 6.9 mph - N/A   Overcast
10:15 PM 57.2 °F 53.6 °F 88% 29.95 in 10.0 mi West 5.8 mph - N/A   Overcast
10:35 PM 57.2 °F 53.6 °F 88% 29.95 in 10.0 mi NW 5.8 mph - N/A   Overcast
10:55 PM 57.2 °F 53.6 °F 88% 29.95 in 10.0 mi NW 6.9 mph - N/A   Overcast
11:15 PM 57.2 °F 53.6 °F 88% 29.95 in 10.0 mi WNW 6.9 mph - N/A   Overcast
11:35 PM 57.2 °F 53.6 °F 88% 29.95 in 10.0 mi WNW 6.9 mph - N/A   Overcast
11:55 PM 57.2 °F 51.8 °F 82% 29.94 in 10.0 mi NW 5.8 mph - N/A   Overcast